OH2EGI-2 Weather Reports


time (UTC)temp
C
wind
direction
speed
KPH
gust
KPH
rain 1hr
cm
rain 24hr
cm
rain mn
cm
humidity
%
barometer
mb
20260508135623 17 292 0.0 0.0 0.00 0.00 0.00 19 1017.6
20260508135123 17 135 0.0 0.0 0.00 0.00 0.00 19 1017.7
20260508134623 17 270 0.0 0.0 0.00 0.00 0.00 19 1017.7
20260508134123 17 270 0.0 6.4 0.00 0.00 0.00 19 1017.7
20260508133623 18 157 0.0 0.0 0.00 0.00 0.00 19 1017.7
20260508133123 19 292 0.0 0.0 0.00 0.00 0.00 18 1017.7
20260508132623 20 247 0.0 3.2 0.00 0.00 0.00 17 1017.7
20260508132123 23 270 3.2 9.7 0.00 0.00 0.00 15 1017.8
20260508131623 26 247 0.0 3.2 0.00 0.00 0.00 15 1017.8
20260508131123 26 225 0.0 0.0 0.00 0.00 0.00 16 1017.7
20260508130623 26 157 0.0 0.0 0.00 0.00 0.00 15 1017.6
20260508130123 26 270 0.0 8.0 0.00 0.00 0.00 15 1017.7
20260508125623 26 202 0.0 0.0 0.00 0.00 0.00 16 1017.7
20260508125123 26 157 0.0 0.0 0.00 0.00 0.00 16 1017.8
20260508124623 26 157 0.0 6.4 0.00 0.00 0.00 16 1017.6
20260508124123 26 157 6.4 6.4 0.00 0.00 0.00 17 1017.8
20260508123623 25 247 0.0 0.0 0.00 0.00 0.00 17 1017.7
20260508123123 26 135 0.0 4.8 0.00 0.00 0.00 17 1017.8
20260508122623 26 292 0.0 0.0 0.00 0.00 0.00 17 1017.8
20260508122123 25 157 0.0 4.8 0.00 0.00 0.00 17 1017.7
20260508121623 25 135 0.0 4.8 0.00 0.00 0.00 18 1017.7
20260508121123 25 315 0.0 6.4 0.00 0.00 0.00 17 1017.8
20260508120623 24 270 0.0 1.6 0.00 0.00 0.00 18 1017.8
20260508120123 23 292 0.0 4.8 0.00 0.00 0.00 18 1017.8
20260508115623 23 135 0.0 6.4 0.00 0.00 0.00 19 1017.9
20260508115123 21 292 0.0 3.2 0.00 0.00 0.00 21 1017.9
20260508114623 21 315 0.0 3.2 0.00 0.00 0.00 21 1018.0
20260508114123 22 112 0.0 0.0 0.00 0.00 0.00 19 1018.0
20260508113623 23 292 0.0 0.0 0.00 0.00 0.00 20 1017.9
20260508113123 23 270 0.0 3.2 0.00 0.00 0.00 20 1018.1
20260508112623 23 292 0.0 0.0 0.00 0.00 0.00 18 1018.1
20260508112123 23 292 0.0 8.0 0.00 0.00 0.00 18 1018.1
20260508111623 25 247 0.0 8.0 0.00 0.00 0.00 18 1017.9
20260508111123 24 292 0.0 0.0 0.00 0.00 0.00 20 1018.0
20260508110623 23 135 0.0 8.0 0.00 0.00 0.00 20 1018.1
20260508110123 23 157 0.0 0.0 0.00 0.00 0.00 21 1018.2
20260508105623 23 292 0.0 0.0 0.00 0.00 0.00 21 1018.2
20260508105123 22 292 0.0 0.0 0.00 0.00 0.00 21 1018.0
20260508104623 23 202 0.0 3.2 0.00 0.00 0.00 21 1018.1
20260508104123 22 247 0.0 4.8 0.00 0.00 0.00 21 1017.9
20260508103623 22 135 0.0 3.2 0.00 0.00 0.00 22 1018.1
20260508103123 22 337 0.0 0.0 0.00 0.00 0.00 23 1017.9
20260508102623 21 292 0.0 0.0 0.00 0.00 0.00 23 1017.9
20260508102123 21 202 0.0 0.0 0.00 0.00 0.00 24 1018.0
20260508101623 20 135 0.0 3.2 0.00 0.00 0.00 25 1018.1
20260508101124 19 225 0.0 0.0 0.00 0.00 0.00 25 1018.2
20260508100623 18 202 0.0 12.9 0.00 0.00 0.00 25 1017.9
20260508100124 18 270 0.0 0.0 0.00 0.00 0.00 26 1017.9
20260508095624 18 292 0.0 6.4 0.00 0.00 0.00 26 1018.1
20260508095124 17 135 0.0 3.2 0.00 0.00 0.00 27 1018.1
20260508094624 17 135 0.0 3.2 0.00 0.00 0.00 27 1018.0
20260508094124 17 135 3.2 6.4 0.00 0.00 0.00 27 1018.1
20260508093624 17 292 0.0 4.8 0.00 0.00 0.00 28 1018.0
20260508093124 16 180 0.0 0.0 0.00 0.00 0.00 28 1018.0
20260508092624 16 292 0.0 4.8 0.00 0.00 0.00 29 1017.8
20260508092124 15 247 0.0 6.4 0.00 0.00 0.00 29 1017.8
20260508091624 15 292 0.0 6.4 0.00 0.00 0.00 29 1017.8
20260508091124 16 225 11.3 11.3 0.00 0.00 0.00 29 1018.1
20260508090624 16 225 0.0 4.8 0.00 0.00 0.00 29 1017.9
20260508090124 16 270 0.0 9.7 0.00 0.00 0.00 29 1018.0
20260508085624 16 315 6.4 6.4 0.00 0.00 0.00 30 1017.9
20260508085124 16 292 0.0 0.0 0.00 0.00 0.00 30 1017.9
20260508084624 15 315 0.0 0.0 0.00 0.00 0.00 31 1018.0
20260508084124 15 202 0.0 0.0 0.00 0.00 0.00 30 1018.0
20260508083624 16 292 0.0 3.2 0.00 0.00 0.00 30 1018.1
20260508083124 16 315 0.0 6.4 0.00 0.00 0.00 30 1018.1
20260508082624 16 292 0.0 3.2 0.00 0.00 0.00 30 1018.0
20260508082124 16 315 0.0 6.4 0.00 0.00 0.00 30 1018.1
20260508081624 16 315 0.0 0.0 0.00 0.00 0.00 30 1018.1
20260508081124 16 315 0.0 0.0 0.00 0.00 0.00 30 1018.1
20260508080624 16 180 0.0 9.7 0.00 0.00 0.00 30 1018.1
20260508080124 16 180 0.0 4.8 0.00 0.00 0.00 30 1018.1
20260508075624 16 270 0.0 8.0 0.00 0.00 0.00 30 1018.0
20260508075124 16 270 0.0 6.4 0.00 0.00 0.00 29 1017.9
20260508074624 16 180 0.0 0.0 0.00 0.00 0.00 29 1017.9
20260508074124 17 157 0.0 6.4 0.00 0.00 0.00 29 1017.9
20260508073624 17 270 0.0 0.0 0.00 0.00 0.00 31 1017.7
20260508073124 17 157 0.0 0.0 0.00 0.00 0.00 32 1017.7
20260508072624 16 315 0.0 0.0 0.00 0.00 0.00 31 1017.7
20260508072124 16 270 0.0 0.0 0.00 0.00 0.00 32 1017.7
20260508071624 16 270 0.0 3.2 0.00 0.00 0.00 31 1017.7
20260508071124 16 292 0.0 4.8 0.00 0.00 0.00 31 1017.6
20260508070624 16 157 0.0 14.5 0.00 0.00 0.00 30 1017.5
20260508070124 16 315 0.0 9.7 0.00 0.00 0.00 32 1017.5
20260508065624 16 315 0.0 12.9 0.00 0.00 0.00 30 1017.7
20260508065124 16 292 0.0 12.9 0.00 0.00 0.00 30 1017.6
20260508064624 16 270 0.0 6.4 0.00 0.00 0.00 31 1017.5
20260508064124 17 315 0.0 3.2 0.00 0.00 0.00 32 1017.3
20260508063624 17 270 3.2 9.7 0.00 0.00 0.00 32 1017.4
20260508063124 17 315 0.0 0.0 0.00 0.00 0.00 34 1017.4
20260508062624 17 225 0.0 4.8 0.00 0.00 0.00 34 1017.4
20260508062124 17 270 0.0 0.0 0.00 0.00 0.00 34 1017.2
20260508061624 17 270 0.0 0.0 0.00 0.00 0.00 34 1017.2
20260508061124 17 247 0.0 6.4 0.00 0.00 0.00 36 1017.3
20260508060624 16 247 0.0 0.0 0.00 0.00 0.00 38 1017.2
20260508060124 16 135 0.0 4.8 0.00 0.00 0.00 37 1016.9
20260508055624 16 315 0.0 0.0 0.00 0.00 0.00 38 1016.8
20260508055124 16 292 0.0 0.0 0.00 0.00 0.00 40 1016.9
20260508054624 16 225 0.0 9.7 0.00 0.00 0.00 39 1016.9
20260508054124 16 292 0.0 4.8 0.00 0.00 0.00 43 1016.8
20260508053624 13 270 0.0 0.0 0.00 0.00 0.00 48 1016.7
20260508053124 12 247 0.0 0.0 0.00 0.00 0.00 53 1016.7
20260508052624 10 270 0.0 0.0 0.00 0.00 0.00 56 1016.6
20260508052124 8 247 0.0 0.0 0.00 0.00 0.00 56 1016.6
20260508051624 7 202 0.0 0.0 0.00 0.00 0.00 57 1016.6
20260508051124 6 292 0.0 9.7 0.00 0.00 0.00 57 1016.5
20260508050624 6 315 0.0 8.0 0.00 0.00 0.00 59 1016.4
20260508050124 6 315 6.4 6.4 0.00 0.00 0.00 59 1016.2
20260508045624 5 292 0.0 0.0 0.00 0.00 0.00 59 1016.5
20260508045124 5 315 0.0 8.0 0.00 0.00 0.00 60 1016.5
20260508044624 5 247 0.0 0.0 0.00 0.00 0.00 60 1016.5
20260508044124 5 315 0.0 0.0 0.00 0.00 0.00 61 1016.3
20260508043624 5 270 0.0 3.2 0.00 0.00 0.00 61 1016.2
20260508043124 5 315 0.0 0.0 0.00 0.00 0.00 61 1016.2
20260508042625 5 180 0.0 11.3 0.00 0.00 0.00 61 1016.2
20260508042124 4 292 0.0 8.0 0.00 0.00 0.00 62 1016.2
20260508041624 4 270 0.0 0.0 0.00 0.00 0.00 62 1016.1
20260508041124 3 225 0.0 0.0 0.00 0.00 0.00 63 1016.0
20260508040625 3 270 0.0 0.0 0.00 0.00 0.00 63 1015.8
20260508040124 3 270 0.0 0.0 0.00 0.00 0.00 63 1015.8
20260508035624 3 292 0.0 0.0 0.00 0.00 0.00 64 1015.6
20260508035125 3 292 0.0 0.0 0.00 0.00 0.00 64 1015.6
20260508034625 2 315 0.0 0.0 0.00 0.00 0.00 65 1015.5
20260508034125 2 270 0.0 0.0 0.00 0.00 0.00 65 1015.5
20260508033625 2 270 0.0 0.0 0.00 0.00 0.00 65 1015.5
20260508033125 2 270 0.0 0.0 0.00 0.00 0.00 65 1015.4
20260508032625 1 247 0.0 0.0 0.00 0.00 0.00 65 1015.4
20260508032125 1 270 0.0 0.0 0.00 0.00 0.00 65 1015.4
20260508031625 1 270 0.0 0.0 0.00 0.00 0.00 65 1015.3
20260508031125 1 292 0.0 0.0 0.00 0.00 0.00 65 1015.3
20260508030625 1 292 0.0 0.0 0.00 0.00 0.00 65 1015.3
20260508030125 1 292 0.0 0.0 0.00 0.00 0.00 65 1015.3
20260508025625 1 292 0.0 0.0 0.00 0.00 0.00 65 1015.1
20260508025125 0 292 0.0 0.0 0.00 0.00 0.00 65 1015.1
20260508024625 0 247 0.0 0.0 0.00 0.00 0.00 64 1015.0
20260508024125 0 247 0.0 0.0 0.00 0.00 0.00 64 1014.9
20260508023625 0 247 0.0 0.0 0.00 0.00 0.00 64 1014.7
20260508023125 0 247 0.0 0.0 0.00 0.00 0.00 63 1014.8
20260508022625 1 247 0.0 0.0 0.00 0.00 0.00 63 1014.7
20260508022125 1 247 0.0 0.0 0.00 0.00 0.00 63 1014.6
20260508021625 1 247 0.0 0.0 0.00 0.00 0.00 63 1014.6
20260508021125 1 247 0.0 0.0 0.00 0.00 0.00 62 1014.6
20260508020625 1 247 0.0 0.0 0.00 0.00 0.00 62 1014.5
20260508020125 1 270 0.0 0.0 0.00 0.00 0.00 62 1014.4
20260508015625 1 270 0.0 0.0 0.00 0.00 0.00 62 1014.3
20260508015125 1 270 0.0 0.0 0.00 0.00 0.00 61 1014.3
20260508014625 2 270 0.0 0.0 0.00 0.00 0.00 61 1014.2
20260508014125 2 270 0.0 0.0 0.00 0.00 0.00 61 1014.1
20260508013625 2 270 0.0 0.0 0.00 0.00 0.00 61 1014.1
20260508013125 2 315 0.0 0.0 0.00 0.00 0.00 61 1014.1
20260508012625 2 315 0.0 0.0 0.00 0.00 0.00 61 1013.9
20260508012125 2 337 0.0 3.2 0.00 0.00 0.00 60 1013.9
20260508011625 2 225 0.0 0.0 0.00 0.00 0.00 60 1013.9
20260508011125 2 225 0.0 0.0 0.00 0.00 0.00 60 1013.9
20260508010625 2 292 0.0 0.0 0.00 0.00 0.00 59 1013.6
20260508010125 2 202 0.0 0.0 0.00 0.00 0.00 59 1013.6
20260508005625 2 315 0.0 0.0 0.00 0.00 0.00 59 1013.6
20260508005125 2 315 0.0 0.0 0.00 0.00 0.00 59 1013.6
20260508004625 2 292 0.0 0.0 0.00 0.00 0.00 59 1013.6
20260508004125 2 315 0.0 0.0 0.00 0.00 0.00 59 1013.5
20260508003625 2 292 0.0 0.0 0.00 0.00 0.00 59 1013.4
20260508003125 2 292 0.0 0.0 0.00 0.00 0.00 59 1013.4
20260508002625 2 270 0.0 0.0 0.00 0.00 0.00 59 1013.3
20260508002125 2 225 0.0 0.0 0.00 0.00 0.00 59 1013.3
20260508001625 2 315 0.0 0.0 0.00 0.00 0.00 59 1013.2
20260508001125 2 315 0.0 0.0 0.00 0.00 0.00 58 1013.1
20260508000625 2 0 0.0 0.0 0.00 0.00 0.00 58 1013.0
20260508000125 2 247 0.0 0.0 0.00 0.00 0.00 58 1012.9
20260507235625 2 247 0.0 0.0 0.00 0.00 0.00 58 1013.0
20260507235125 2 247 0.0 0.0 0.00 0.00 0.00 58 1012.9
20260507234625 2 315 0.0 0.0 0.00 0.00 0.00 58 1012.8
20260507234125 2 270 0.0 0.0 0.00 0.00 0.00 58 1012.7
20260507233625 2 315 0.0 0.0 0.00 0.00 0.00 58 1012.7
20260507233125 2 337 0.0 0.0 0.00 0.00 0.00 58 1012.7
20260507232625 2 270 0.0 0.0 0.00 0.00 0.00 58 1012.6
20260507232125 2 270 0.0 0.0 0.00 0.00 0.00 58 1012.5
20260507231625 2 225 0.0 0.0 0.00 0.00 0.00 57 1012.4
20260507231125 2 225 0.0 0.0 0.00 0.00 0.00 57 1012.3
20260507230625 2 225 0.0 0.0 0.00 0.00 0.00 57 1012.2
20260507230125 2 225 0.0 0.0 0.00 0.00 0.00 56 1012.1
20260507225625 2 225 0.0 0.0 0.00 0.00 0.00 56 1012.1
20260507225125 2 225 0.0 0.0 0.00 0.00 0.00 56 1012.0
20260507224625 2 225 0.0 0.0 0.00 0.00 0.00 55 1011.9
20260507224125 2 225 0.0 0.0 0.00 0.00 0.00 55 1011.9
20260507223625 2 225 0.0 0.0 0.00 0.00 0.00 55 1011.8
20260507223125 2 225 0.0 0.0 0.00 0.00 0.00 54 1011.8
20260507222625 2 225 0.0 0.0 0.00 0.00 0.00 54 1011.7
20260507222125 2 225 0.0 0.0 0.00 0.00 0.00 54 1011.7
20260507221625 2 225 0.0 0.0 0.00 0.00 0.00 53 1011.7
20260507221125 3 225 0.0 0.0 0.00 0.00 0.00 53 1011.6
20260507220626 3 225 0.0 0.0 0.00 0.00 0.00 53 1011.7
20260507220125 3 225 0.0 0.0 0.00 0.00 0.00 53 1011.6
20260507215626 3 225 0.0 0.0 0.00 0.00 0.00 53 1011.6
20260507215126 3 225 0.0 0.0 0.00 0.00 0.00 53 1011.5
20260507214626 3 225 0.0 0.0 0.00 0.00 0.00 52 1011.6
20260507214126 3 225 0.0 0.0 0.00 0.00 0.00 52 1011.4
20260507213626 3 225 0.0 0.0 0.00 0.00 0.00 52 1011.3
20260507213126 3 225 0.0 0.0 0.00 0.00 0.00 52 1011.2
20260507212626 3 225 0.0 0.0 0.00 0.00 0.00 52 1011.2
20260507212126 3 225 0.0 0.0 0.00 0.00 0.00 52 1011.2
20260507211626 3 225 0.0 0.0 0.00 0.00 0.00 52 1011.1
20260507211126 3 225 0.0 0.0 0.00 0.00 0.00 51 1011.0
20260507210626 3 225 0.0 0.0 0.00 0.00 0.00 51 1010.9
20260507210126 3 225 0.0 0.0 0.00 0.00 0.00 51 1010.9
20260507205626 3 225 0.0 0.0 0.00 0.00 0.00 51 1010.8
20260507205126 3 225 0.0 0.0 0.00 0.00 0.00 51 1010.7
20260507204626 3 225 0.0 0.0 0.00 0.00 0.00 51 1010.7
20260507204126 3 270 0.0 0.0 0.00 0.00 0.00 51 1010.4
20260507203626 3 270 0.0 0.0 0.00 0.00 0.00 52 1010.4
20260507203126 3 292 0.0 0.0 0.00 0.00 0.00 52 1010.3
20260507202626 3 337 0.0 0.0 0.00 0.00 0.00 52 1010.3
20260507202126 2 337 0.0 0.0 0.00 0.00 0.00 51 1010.3
20260507201626 2 337 0.0 0.0 0.00 0.00 0.00 50 1010.3
20260507201126 2 337 0.0 0.0 0.00 0.00 0.00 49 1010.1
20260507200626 2 337 0.0 0.0 0.00 0.00 0.00 49 1010.0
20260507200126 2 337 0.0 0.0 0.00 0.00 0.00 48 1010.1
20260507195626 2 337 0.0 0.0 0.00 0.00 0.00 48 1009.8
20260507195126 2 337 0.0 0.0 0.00 0.00 0.00 47 1009.9
20260507194626 3 337 0.0 0.0 0.00 0.00 0.00 47 1009.8
20260507194126 3 337 0.0 0.0 0.00 0.00 0.00 46 1009.8
20260507193626 3 337 0.0 0.0 0.00 0.00 0.00 45 1009.6
20260507193126 3 337 0.0 0.0 0.00 0.00 0.00 44 1009.6
20260507192626 3 337 0.0 0.0 0.00 0.00 0.00 44 1009.6
20260507192126 3 337 0.0 0.0 0.00 0.00 0.00 42 1009.5
20260507191626 3 337 0.0 0.0 0.00 0.00 0.00 42 1009.4
20260507191126 3 337 0.0 0.0 0.00 0.00 0.00 41 1009.3
20260507190626 4 337 0.0 0.0 0.00 0.00 0.00 40 1009.4
20260507190126 4 337 0.0 0.0 0.00 0.00 0.00 40 1009.3
20260507185626 5 337 0.0 0.0 0.00 0.00 0.00 40 1009.3
20260507185126 5 337 0.0 0.0 0.00 0.00 0.00 39 1009.2
20260507184626 5 337 0.0 0.0 0.00 0.00 0.00 39 1009.2
20260507184126 5 337 0.0 0.0 0.00 0.00 0.00 38 1009.2
20260507183626 6 337 0.0 0.0 0.00 0.00 0.00 38 1009.1
20260507183126 6 337 0.0 0.0 0.00 0.00 0.00 38 1009.1
20260507182626 6 337 0.0 0.0 0.00 0.00 0.00 37 1009.1
20260507182126 7 337 0.0 0.0 0.00 0.00 0.00 36 1009.0
20260507181626 7 337 0.0 0.0 0.00 0.00 0.00 36 1008.9
20260507181126 7 337 0.0 0.0 0.00 0.00 0.00 36 1009.0
20260507180626 7 337 0.0 0.0 0.00 0.00 0.00 35 1009.0
20260507180126 8 337 0.0 0.0 0.00 0.00 0.00 35 1008.9
20260507175626 8 337 0.0 0.0 0.00 0.00 0.00 34 1008.8
20260507175126 8 337 0.0 0.0 0.00 0.00 0.00 34 1008.8
20260507174626 9 315 0.0 0.0 0.00 0.00 0.00 33 1008.8
20260507174126 9 315 0.0 0.0 0.00 0.00 0.00 32 1008.8
20260507173626 10 292 0.0 0.0 0.00 0.00 0.00 32 1008.8
20260507173126 10 270 0.0 0.0 0.00 0.00 0.00 32 1008.8
20260507172626 10 315 0.0 0.0 0.00 0.00 0.00 32 1008.7
20260507172126 10 337 0.0 0.0 0.00 0.00 0.00 31 1008.7
20260507171626 11 315 0.0 0.0 0.00 0.00 0.00 29 1008.6
20260507171126 11 270 0.0 0.0 0.00 0.00 0.00 28 1008.5
20260507170626 12 225 0.0 0.0 0.00 0.00 0.00 27 1008.5
20260507170126 12 292 0.0 0.0 0.00 0.00 0.00 26 1008.5
20260507165626 13 315 0.0 0.0 0.00 0.00 0.00 26 1008.6
20260507165126 14 22 0.0 0.0 0.00 0.00 0.00 26 1008.5
20260507164626 14 45 0.0 0.0 0.00 0.00 0.00 27 1008.4
20260507164126 13 315 0.0 0.0 0.00 0.00 0.00 27 1008.4
20260507163626 13 315 0.0 0.0 0.00 0.00 0.00 27 1008.3
20260507163126 13 292 0.0 0.0 0.00 0.00 0.00 26 1008.3
20260507162626 13 45 0.0 0.0 0.00 0.00 0.00 25 1008.2
20260507162127 15 202 0.0 0.0 0.00 0.00 0.00 24 1008.2
20260507161627 17 315 0.0 0.0 0.00 0.00 0.00 21 1008.2
20260507161127 18 22 0.0 0.0 0.00 0.00 0.00 19 1008.2
20260507160627 22 315 0.0 0.0 0.00 0.00 0.00 18 1008.3
20260507160127 25 112 0.0 0.0 0.00 0.00 0.00 17 1008.2
20260507155627 25 135 0.0 0.0 0.00 0.00 0.00 18 1008.1
20260507155127 25 315 0.0 0.0 0.00 0.00 0.00 17 1008.0
20260507154627 25 180 0.0 0.0 0.00 0.00 0.00 17 1008.0
20260507154127 25 157 0.0 0.0 0.00 0.00 0.00 17 1008.0
20260507153627 25 180 0.0 0.0 0.00 0.00 0.00 17 1008.0
20260507153127 25 135 0.0 0.0 0.00 0.00 0.00 17 1007.9
20260507152627 25 112 0.0 0.0 0.00 0.00 0.00 17 1008.0
20260507152127 24 112 0.0 0.0 0.00 0.00 0.00 17 1007.9
20260507151627 25 135 0.0 0.0 0.00 0.00 0.00 16 1007.9
20260507151127 25 22 0.0 0.0 0.00 0.00 0.00 17 1007.9
20260507150627 25 135 0.0 0.0 0.00 0.00 0.00 17 1007.9
20260507150127 24 135 0.0 0.0 0.00 0.00 0.00 17 1007.9
20260507145627 23 157 0.0 4.8 0.00 0.00 0.00 17 1008.0
20260507145127 24 157 0.0 0.0 0.00 0.00 0.00 17 1008.1
20260507144627 23 112 0.0 0.0 0.00 0.00 0.00 18 1007.9
20260507144127 22 22 0.0 0.0 0.00 0.00 0.00 19 1008.1
20260507143627 21 337 0.0 0.0 0.00 0.00 0.00 19 1008.1
20260507143127 19 45 0.0 0.0 0.00 0.00 0.00 22 1008.0
20260507142627 17 315 0.0 0.0 0.00 0.00 0.00 23 1008.0
20260507142127 17 135 0.0 1.6 0.00 0.00 0.00 23 1007.9
20260507141627 16 112 0.0 0.0 0.00 0.00 0.00 23 1007.7
20260507141127 16 90 0.0 1.6 0.00 0.00 0.00 21 1007.8
20260507140627 16 0 0.0 0.0 0.00 0.00 0.00 21 1007.7
20260507140127 15 135 0.0 0.0 0.00 0.00 0.00 22 1007.7